Location: Newark
(9.4667°S, 159.8167°E)
Time: 02:12:57
(UTC+00:00)

Vanguard 1 - Pass Details

Date: 20 November 2019
Orbit: 651 x 3832 km, 34.3° (Epoch: 11 December)

Event Time Altitude Azimuth Distance (km) Brightness Sun altitude
Rises 18:23:45 0° 236° (SW) 7,796 14.3 -6.7°
Reaches altitude 10° 18:28:54 10° 235° (SW) 6,895 14.0 -5.5°
Maximum altitude 18:52:55 86° 322° (NW) 3,411 12.8 0.1°
Drops below altitude 10° 19:09:21 10° 51° (NE) 5,016 14.2 3.9°
Sets 19:12:25 0° 51° (NE) 5,686 14.5 4.6°
